Regional Weather Roundup
Issued by NWS

Home | Current Version | Previous Version | Graphics & Text | Print | Product List | Glossary On
Versions: 1 2 3 4 5 6 7 8 9 10 11 12 13 14 15 16 17 18 19 20 21 22 23 24 25 26 27 28 29 30 31 32 33 34 35 36 37 38 39 40 41 42 43 44 45 46 47 48 49 50
016
ASUS43 KLSX 211907
RWRMO

WEATHER SUMMARY FOR MISSOURI
NATIONAL WEATHER SERVICE SPRINGFIELD MO
200 PM CDT THU MAY 21 2015

NOTE: "FAIR" INDICATES FEW OR NO CLOUDS BELOW 12,000 FEET WITH NO
       SIGNIFICANT WEATHER AND/OR OBSTRUCTIONS TO VISIBILITY.
       CURRENT SKY AND/OR WEATHER CONDITIONS ARE NOT AVAILABLE FOR
       CHILLICOTHE AND FARMINGTON.

MOZ001>031-035>038-043-044-053-054-212000-
...NORTHERN AND WESTERN MISSOURI...

CITY           SKY/WX    TMP DP  RH WIND       PRES   REMARKS
KANSAS CTY INT MOSUNNY   64  44  48 NW6       30.26S
KANSAS C DTWN  MOSUNNY   65  43  44 VRB7      30.25F
LEE`S SUMMIT   SUNNY     63  43  48 CALM      30.26F
ST JOSEPH      SUNNY     67  43  41 VRB6      30.24F
CHILLICOTHE      N/A     66  45  46 VRB6      30.22F
KIRKSVILLE     SUNNY     66  45  46 W10       30.18F

$$
MOZ066>068-077>081-088>096-101>105-212000-
...SOUTHWEST MISSOURI...

CITY           SKY/WX    TMP DP  RH WIND       PRES   REMARKS
SPRINGFIELD    CLOUDY    59  43  55 VRB3      30.26F
JOPLIN         CLOUDY    59  46  62 NE6       30.28S

$$
MOZ032>034-039>042-045>050-055>058-069>072-212000-
...CENTRAL MISSOURI...

CITY           SKY/WX    TMP DP  RH WIND       PRES   REMARKS
COLUMBIA       MOSUNNY   63  42  46 NW8       30.23F
JEFFERSON CITY PTSUNNY   62  38  40 CALM      30.24F
ROLLA          MOSUNNY   58  44  60 CALM      30.23F
SEDALIA        SUNNY     63  43  48 N3        30.26F
WHITEMAN AFB   SUNNY     62  44  50 W2        30.24F
WARRENSBURG    SUNNY     63  39  42 CALM      30.26S
OSAGE BEACH    PTSUNNY   61  39  44 NE9       30.25S

$$
MOZ051-052-059>065-212000-
...EAST CENTRAL MISSOURI...

CITY           SKY/WX    TMP DP  RH WIND       PRES   REMARKS
ST LOUIS INTL  MOSUNNY   63  43  48 W8        30.22F
SPIRIT OF STL  MOSUNNY   61  43  51 NW3       30.22F
ST CHARLES     PTSUNNY   61  40  45 W9        30.21F

$$
MOZ072>076-082>087-097>100-106>115-212000-
...SOUTH CENTRAL AND SOUTHEAST MISSOURI...

CITY           SKY/WX    TMP DP  RH WIND       PRES   REMARKS
CAPE GIRARDEAU PTSUNNY   59  45  59 NW14G20   30.22S
FARMINGTON     CLOUDY    52  39  62 NW7       30.28S
POPLAR BLUFF   LGT RAIN  56  44  64 NW13      30.22F
WEST PLAINS    MOSUNNY   60  44  55 NE10G21   30.23F

$$



USA.gov is the U.S. government's official web portal to all federal, state and local government web resources and services.